owner,sensor,date,latitude,longitude,vertical_datum,sea_water_temperature,qcFlag
BP,ioos:station:wmo:42370:2,2021-03-01T00:16:00Z,27.3215,-90.5355,18.3,621.6,11144222
BP,ioos:station:wmo:42370:2,2021-03-01T00:36:00Z,27.3215,-90.5355,18.3,621.4,11144222
BP,ioos:station:wmo:42370:2,2021-03-01T00:56:00Z,27.3215,-90.5355,18.3,621.4,11144222
BP,ioos:station:wmo:42370:2,2021-03-01T01:16:00Z,27.3215,-90.5355,18.3,621.4,11144222
BP,ioos:station:wmo:42370:2,2021-03-01T01:36:00Z,27.3215,-90.5355,18.3,621.4,11144222
BP,ioos:station:wmo:42370:2,2021-03-01T01:56:00Z,27.3215,-90.5355,18.3,621.3,11144222
BP,ioos:station:wmo:42370:2,2021-03-01T02:16:00Z,27.3215,-90.5355,18.3,621.3,11144222
BP,ioos:station:wmo:42370:2,2021-03-01T02:36:00Z,27.3215,-90.5355,18.3,621.3,11144222
BP,ioos:station:wmo:42370:2,2021-03-01T02:56:00Z,27.3215,-90.5355,18.3,621.4,11144222
BP,ioos:station:wmo:42370:2,2021-03-01T03:16:00Z,27.3215,-90.5355,18.3,621.3,11144222
BP,ioos:station:wmo:42370:2,2021-03-01T03:36:00Z,27.3215,-90.5355,18.3,621.4,11144222
BP,ioos:station:wmo:42370:2,2021-03-01T03:56:00Z,27.3215,-90.5355,18.3,621.4,11144222
BP,ioos:station:wmo:42370:2,2021-03-01T04:16:00Z,27.3215,-90.5355,18.3,621.3,11144222
BP,ioos:station:wmo:42370:2,2021-03-01T04:36:00Z,27.3215,-90.5355,18.3,621.4,11144222
BP,ioos:station:wmo:42370:2,2021-03-01T04:56:00Z,27.3215,-90.5355,18.3,621.2,11144222
BP,ioos:station:wmo:42370:2,2021-03-01T05:16:00Z,27.3215,-90.5355,18.3,621.3,11144222
BP,ioos:station:wmo:42370:2,2021-03-01T05:36:00Z,27.3215,-90.5355,18.3,621.3,11144222
BP,ioos:station:wmo:42370:2,2021-03-01T05:56:00Z,27.3215,-90.5355,18.3,621.2,11144222
BP,ioos:station:wmo:42370:2,2021-03-01T06:16:00Z,27.3215,-90.5355,18.3,621.4,11144222
BP,ioos:station:wmo:42370:2,2021-03-01T06:36:00Z,27.3215,-90.5355,18.3,621.3,11144222
BP,ioos:station:wmo:42370:2,2021-03-01T06:56:00Z,27.3215,-90.5355,18.3,621.3,11144222
BP,ioos:station:wmo:42370:2,2021-03-01T07:16:00Z,27.3215,-90.5355,18.3,621.4,11144222
BP,ioos:station:wmo:42370:2,2021-03-01T07:36:00Z,27.3215,-90.5355,18.3,621.3,11144222
BP,ioos:station:wmo:42370:2,2021-03-01T07:56:00Z,27.3215,-90.5355,18.3,621.4,11144222
BP,ioos:station:wmo:42370:2,2021-03-01T08:16:00Z,27.3215,-90.5355,18.3,621.3,11144222
BP,ioos:station:wmo:42370:2,2021-03-01T08:36:00Z,27.3215,-90.5355,18.3,621.4,11144222
BP,ioos:station:wmo:42370:2,2021-03-01T08:56:00Z,27.3215,-90.5355,18.3,621.4,11144222
BP,ioos:station:wmo:42370:2,2021-03-01T09:16:00Z,27.3215,-90.5355,18.3,621.3,11144222
BP,ioos:station:wmo:42370:2,2021-03-01T09:36:00Z,27.3215,-90.5355,18.3,621.4,11144222
BP,ioos:station:wmo:42370:2,2021-03-01T09:56:00Z,27.3215,-90.5355,18.3,621.4,11144222
BP,ioos:station:wmo:42370:2,2021-03-01T10:16:00Z,27.3215,-90.5355,18.3,621.3,11144222
BP,ioos:station:wmo:42370:2,2021-03-01T10:36:00Z,27.3215,-90.5355,18.3,621.5,11144222
BP,ioos:station:wmo:42370:2,2021-03-01T10:56:00Z,27.3215,-90.5355,18.3,621.9,11144222
BP,ioos:station:wmo:42370:2,2021-03-01T11:16:00Z,27.3215,-90.5355,18.3,621.4,11144222
BP,ioos:station:wmo:42370:2,2021-03-01T11:36:00Z,27.3215,-90.5355,18.3,621.6,11144222
BP,ioos:station:wmo:42370:2,2021-03-01T11:56:00Z,27.3215,-90.5355,18.3,621.5,11144222
BP,ioos:station:wmo:42370:2,2021-03-01T12:16:00Z,27.3215,-90.5355,18.3,621.4,11144222
BP,ioos:station:wmo:42370:2,2021-03-01T12:36:00Z,27.3215,-90.5355,18.3,621.5,11144222
BP,ioos:station:wmo:42370:2,2021-03-01T12:56:00Z,27.3215,-90.5355,18.3,621.4,11144222
BP,ioos:station:wmo:42370:2,2021-03-01T13:16:00Z,27.3215,-90.5355,18.3,621.4,11144222
BP,ioos:station:wmo:42370:2,2021-03-01T13:36:00Z,27.3215,-90.5355,18.3,621.7,11144222
BP,ioos:station:wmo:42370:2,2021-03-01T13:56:00Z,27.3215,-90.5355,18.3,621.6,11144222
BP,ioos:station:wmo:42370:2,2021-03-01T14:16:00Z,27.3215,-90.5355,18.3,621.6,11144222
BP,ioos:station:wmo:42370:2,2021-03-01T14:36:00Z,27.3215,-90.5355,18.3,621.7,11144222
BP,ioos:station:wmo:42370:2,2021-03-01T14:56:00Z,27.3215,-90.5355,18.3,621.6,11144222
BP,ioos:station:wmo:42370:2,2021-03-01T15:16:00Z,27.3215,-90.5355,18.3,621.6,11144222
BP,ioos:station:wmo:42370:2,2021-03-01T15:36:00Z,27.3215,-90.5355,18.3,622.2,11144222
BP,ioos:station:wmo:42370:2,2021-03-01T15:56:00Z,27.3215,-90.5355,18.3,621.5,11144222
BP,ioos:station:wmo:42370:2,2021-03-01T16:16:00Z,27.3215,-90.5355,18.3,621.7,11144222
BP,ioos:station:wmo:42370:2,2021-03-01T16:36:00Z,27.3215,-90.5355,18.3,622.0,11144222
BP,ioos:station:wmo:42370:2,2021-03-01T16:56:00Z,27.3215,-90.5355,18.3,621.6,11144222
BP,ioos:station:wmo:42370:2,2021-03-01T17:16:00Z,27.3215,-90.5355,18.3,621.6,11144222
BP,ioos:station:wmo:42370:2,2021-03-01T17:36:00Z,27.3215,-90.5355,18.3,621.6,11144222
BP,ioos:station:wmo:42370:2,2021-03-01T17:56:00Z,27.3215,-90.5355,18.3,622.4,11144222
BP,ioos:station:wmo:42370:2,2021-03-01T18:16:00Z,27.3215,-90.5355,18.3,621.8,11144222
BP,ioos:station:wmo:42370:2,2021-03-01T18:36:00Z,27.3215,-90.5355,18.3,621.7,11144222
BP,ioos:station:wmo:42370:2,2021-03-01T18:56:00Z,27.3215,-90.5355,18.3,621.7,11144222
BP,ioos:station:wmo:42370:2,2021-03-01T19:16:00Z,27.3215,-90.5355,18.3,621.6,11144222
BP,ioos:station:wmo:42370:2,2021-03-01T19:36:00Z,27.3215,-90.5355,18.3,621.7,11144222
BP,ioos:station:wmo:42370:2,2021-03-01T19:56:00Z,27.3215,-90.5355,18.3,622.2,11144222
BP,ioos:station:wmo:42370:2,2021-03-01T20:16:00Z,27.3215,-90.5355,18.3,621.9,11144222
BP,ioos:station:wmo:42370:2,2021-03-01T20:36:00Z,27.3215,-90.5355,18.3,621.7,11144222
BP,ioos:station:wmo:42370:2,2021-03-01T20:56:00Z,27.3215,-90.5355,18.3,621.7,11144222
BP,ioos:station:wmo:42370:2,2021-03-01T21:16:00Z,27.3215,-90.5355,18.3,621.7,11144222
BP,ioos:station:wmo:42370:2,2021-03-01T21:36:00Z,27.3215,-90.5355,18.3,621.8,11144222
BP,ioos:station:wmo:42370:2,2021-03-01T21:56:00Z,27.3215,-90.5355,18.3,621.8,11144222
BP,ioos:station:wmo:42370:2,2021-03-01T22:16:00Z,27.3215,-90.5355,18.3,622.2,11144222
BP,ioos:station:wmo:42370:2,2021-03-01T22:36:00Z,27.3215,-90.5355,18.3,621.6,11144222
BP,ioos:station:wmo:42370:2,2021-03-01T22:56:00Z,27.3215,-90.5355,18.3,621.6,11144222
BP,ioos:station:wmo:42370:2,2021-03-01T23:16:00Z,27.3215,-90.5355,18.3,621.5,11144222
BP,ioos:station:wmo:42370:2,2021-03-01T23:36:00Z,27.3215,-90.5355,18.3,621.4,11144222
BP,ioos:station:wmo:42370:2,2021-03-01T23:56:00Z,27.3215,-90.5355,18.3,621.4,11144222
BP,ioos:station:wmo:42370:2,2021-03-02T00:16:00Z,27.3215,-90.5355,18.3,621.4,11144222
BP,ioos:station:wmo:42370:2,2021-03-02T00:36:00Z,27.3215,-90.5355,18.3,621.5,11144222
BP,ioos:station:wmo:42370:2,2021-03-02T00:56:00Z,27.3215,-90.5355,18.3,621.5,11144222
BP,ioos:station:wmo:42370:2,2021-03-02T01:16:00Z,27.3215,-90.5355,18.3,621.4,11144222
BP,ioos:station:wmo:42370:2,2021-03-02T01:36:00Z,27.3215,-90.5355,18.3,621.5,11144222
BP,ioos:station:wmo:42370:2,2021-03-02T01:56:00Z,27.3215,-90.5355,18.3,621.5,11144222
BP,ioos:station:wmo:42370:2,2021-03-02T02:16:00Z,27.3215,-90.5355,18.3,621.6,11144222
BP,ioos:station:wmo:42370:2,2021-03-02T02:36:00Z,27.3215,-90.5355,18.3,621.5,11144222
BP,ioos:station:wmo:42370:2,2021-03-02T02:56:00Z,27.3215,-90.5355,18.3,621.4,11144222
BP,ioos:station:wmo:42370:2,2021-03-02T03:16:00Z,27.3215,-90.5355,18.3,621.5,11144222
BP,ioos:station:wmo:42370:2,2021-03-02T03:36:00Z,27.3215,-90.5355,18.3,621.4,11144222
BP,ioos:station:wmo:42370:2,2021-03-02T03:56:00Z,27.3215,-90.5355,18.3,621.4,11144222
BP,ioos:station:wmo:42370:2,2021-03-02T04:16:00Z,27.3215,-90.5355,18.3,621.4,11144222
BP,ioos:station:wmo:42370:2,2021-03-02T04:36:00Z,27.3215,-90.5355,18.3,621.5,11144222
BP,ioos:station:wmo:42370:2,2021-03-02T04:56:00Z,27.3215,-90.5355,18.3,621.6,11144222
BP,ioos:station:wmo:42370:2,2021-03-02T05:16:00Z,27.3215,-90.5355,18.3,621.7,11144222
BP,ioos:station:wmo:42370:2,2021-03-02T05:36:00Z,27.3215,-90.5355,18.3,621.6,11144222
BP,ioos:station:wmo:42370:2,2021-03-02T05:56:00Z,27.3215,-90.5355,18.3,621.7,11144222
BP,ioos:station:wmo:42370:2,2021-03-02T06:16:00Z,27.3215,-90.5355,18.3,621.5,11144222
BP,ioos:station:wmo:42370:2,2021-03-02T06:36:00Z,27.3215,-90.5355,18.3,621.5,11144222
BP,ioos:station:wmo:42370:2,2021-03-02T06:56:00Z,27.3215,-90.5355,18.3,621.5,11144222
BP,ioos:station:wmo:42370:2,2021-03-02T07:16:00Z,27.3215,-90.5355,18.3,621.5,11144222
BP,ioos:station:wmo:42370:2,2021-03-02T07:36:00Z,27.3215,-90.5355,18.3,621.7,11144222
BP,ioos:station:wmo:42370:2,2021-03-02T07:56:00Z,27.3215,-90.5355,18.3,621.5,11144222
BP,ioos:station:wmo:42370:2,2021-03-02T08:16:00Z,27.3215,-90.5355,18.3,621.4,11144222
BP,ioos:station:wmo:42370:2,2021-03-02T08:36:00Z,27.3215,-90.5355,18.3,621.4,11144222
BP,ioos:station:wmo:42370:2,2021-03-02T08:56:00Z,27.3215,-90.5355,18.3,621.5,11144222
BP,ioos:station:wmo:42370:2,2021-03-02T09:16:00Z,27.3215,-90.5355,18.3,621.4,11144222
BP,ioos:station:wmo:42370:2,2021-03-02T09:36:00Z,27.3215,-90.5355,18.3,621.4,11144222
BP,ioos:station:wmo:42370:2,2021-03-02T09:56:00Z,27.3215,-90.5355,18.3,621.3,11144222
BP,ioos:station:wmo:42370:2,2021-03-02T10:16:00Z,27.3215,-90.5355,18.3,621.2,11144222
BP,ioos:station:wmo:42370:2,2021-03-02T10:36:00Z,27.3215,-90.5355,18.3,621.5,11144222
BP,ioos:station:wmo:42370:2,2021-03-02T10:56:00Z,27.3215,-90.5355,18.3,621.7,11144222
BP,ioos:station:wmo:42370:2,2021-03-02T11:16:00Z,27.3215,-90.5355,18.3,621.2,11144222
BP,ioos:station:wmo:42370:2,2021-03-02T11:36:00Z,27.3215,-90.5355,18.3,621.3,11144222
BP,ioos:station:wmo:42370:2,2021-03-02T11:56:00Z,27.3215,-90.5355,18.3,621.2,11144222
BP,ioos:station:wmo:42370:2,2021-03-02T12:16:00Z,27.3215,-90.5355,18.3,621.8,11144222
BP,ioos:station:wmo:42370:2,2021-03-02T12:36:00Z,27.3215,-90.5355,18.3,621.6,11144222
BP,ioos:station:wmo:42370:2,2021-03-02T12:56:00Z,27.3215,-90.5355,18.3,621.4,11144222
BP,ioos:station:wmo:42370:2,2021-03-02T13:16:00Z,27.3215,-90.5355,18.3,621.4,11144222
BP,ioos:station:wmo:42370:2,2021-03-02T13:36:00Z,27.3215,-90.5355,18.3,621.4,11144222
BP,ioos:station:wmo:42370:2,2021-03-02T13:56:00Z,27.3215,-90.5355,18.3,621.4,11144222
BP,ioos:station:wmo:42370:2,2021-03-02T14:16:00Z,27.3215,-90.5355,18.3,621.4,11144222
BP,ioos:station:wmo:42370:2,2021-03-02T14:36:00Z,27.3215,-90.5355,18.3,621.4,11144222
BP,ioos:station:wmo:42370:2,2021-03-02T14:56:00Z,27.3215,-90.5355,18.3,621.5,11144222
BP,ioos:station:wmo:42370:2,2021-03-02T15:16:00Z,27.3215,-90.5355,18.3,621.4,11144222
BP,ioos:station:wmo:42370:2,2021-03-02T15:36:00Z,27.3215,-90.5355,18.3,621.5,11144222
BP,ioos:station:wmo:42370:2,2021-03-02T15:56:00Z,27.3215,-90.5355,18.3,621.4,11144222
BP,ioos:station:wmo:42370:2,2021-03-02T16:16:00Z,27.3215,-90.5355,18.3,621.4,11144222
BP,ioos:station:wmo:42370:2,2021-03-02T16:36:00Z,27.3215,-90.5355,18.3,621.4,11144222
BP,ioos:station:wmo:42370:2,2021-03-02T16:56:00Z,27.3215,-90.5355,18.3,621.4,11144222
BP,ioos:station:wmo:42370:2,2021-03-02T17:16:00Z,27.3215,-90.5355,18.3,621.4,11144222
BP,ioos:station:wmo:42370:2,2021-03-02T17:36:00Z,27.3215,-90.5355,18.3,621.4,11144222
BP,ioos:station:wmo:42370:2,2021-03-02T17:56:00Z,27.3215,-90.5355,18.3,621.4,11144222
BP,ioos:station:wmo:42370:2,2021-03-02T18:16:00Z,27.3215,-90.5355,18.3,621.4,11144222
BP,ioos:station:wmo:42370:2,2021-03-02T18:36:00Z,27.3215,-90.5355,18.3,621.5,11144222
BP,ioos:station:wmo:42370:2,2021-03-02T18:56:00Z,27.3215,-90.5355,18.3,621.5,11144222
BP,ioos:station:wmo:42370:2,2021-03-02T19:16:00Z,27.3215,-90.5355,18.3,621.4,11144222
BP,ioos:station:wmo:42370:2,2021-03-02T19:36:00Z,27.3215,-90.5355,18.3,621.4,11144222
BP,ioos:station:wmo:42370:2,2021-03-02T19:56:00Z,27.3215,-90.5355,18.3,621.4,11144222
BP,ioos:station:wmo:42370:2,2021-03-02T20:16:00Z,27.3215,-90.5355,18.3,621.6,11144222
BP,ioos:station:wmo:42370:2,2021-03-02T20:36:00Z,27.3215,-90.5355,18.3,621.4,11144222
BP,ioos:station:wmo:42370:2,2021-03-02T20:56:00Z,27.3215,-90.5355,18.3,621.3,11144222
BP,ioos:station:wmo:42370:2,2021-03-02T21:16:00Z,27.3215,-90.5355,18.3,621.4,11144222
BP,ioos:station:wmo:42370:2,2021-03-02T21:36:00Z,27.3215,-90.5355,18.3,621.4,11144222
BP,ioos:station:wmo:42370:2,2021-03-02T21:56:00Z,27.3215,-90.5355,18.3,621.3,11144222
BP,ioos:station:wmo:42370:2,2021-03-02T22:16:00Z,27.3215,-90.5355,18.3,621.4,11144222
BP,ioos:station:wmo:42370:2,2021-03-02T22:36:00Z,27.3215,-90.5355,18.3,621.3,11144222
BP,ioos:station:wmo:42370:2,2021-03-02T22:56:00Z,27.3215,-90.5355,18.3,621.4,11144222
BP,ioos:station:wmo:42370:2,2021-03-02T23:16:00Z,27.3215,-90.5355,18.3,621.1,11144222
BP,ioos:station:wmo:42370:2,2021-03-02T23:36:00Z,27.3215,-90.5355,18.3,621.2,11144222
BP,ioos:station:wmo:42370:2,2021-03-02T23:56:00Z,27.3215,-90.5355,18.3,621.4,11144222
BP,ioos:station:wmo:42370:2,2021-03-03T00:16:00Z,27.3215,-90.5355,18.3,621.1,11144222
BP,ioos:station:wmo:42370:2,2021-03-03T00:36:00Z,27.3215,-90.5355,18.3,621.0,11144222
BP,ioos:station:wmo:42370:2,2021-03-03T00:56:00Z,27.3215,-90.5355,18.3,621.1,11144222
BP,ioos:station:wmo:42370:2,2021-03-03T01:16:00Z,27.3215,-90.5355,18.3,621.0,11144222
BP,ioos:station:wmo:42370:2,2021-03-03T01:36:00Z,27.3215,-90.5355,18.3,621.0,11144222
BP,ioos:station:wmo:42370:2,2021-03-03T01:56:00Z,27.3215,-90.5355,18.3,621.0,11144222
BP,ioos:station:wmo:42370:2,2021-03-03T02:16:00Z,27.3215,-90.5355,18.3,620.9,11144222
BP,ioos:station:wmo:42370:2,2021-03-03T02:36:00Z,27.3215,-90.5355,18.3,620.9,11144222
BP,ioos:station:wmo:42370:2,2021-03-03T02:56:00Z,27.3215,-90.5355,18.3,620.8,11144222
BP,ioos:station:wmo:42370:2,2021-03-03T03:16:00Z,27.3215,-90.5355,18.3,620.7,11144222
BP,ioos:station:wmo:42370:2,2021-03-03T03:36:00Z,27.3215,-90.5355,18.3,620.8,11144222
BP,ioos:station:wmo:42370:2,2021-03-03T03:56:00Z,27.3215,-90.5355,18.3,620.7,11144222
BP,ioos:station:wmo:42370:2,2021-03-03T04:16:00Z,27.3215,-90.5355,18.3,620.8,11144222
BP,ioos:station:wmo:42370:2,2021-03-03T04:36:00Z,27.3215,-90.5355,18.3,620.8,11144222
BP,ioos:station:wmo:42370:2,2021-03-03T04:56:00Z,27.3215,-90.5355,18.3,620.6,11144222
BP,ioos:station:wmo:42370:2,2021-03-03T05:17:00Z,27.3215,-90.5355,18.3,621.7,11144222
BP,ioos:station:wmo:42370:2,2021-03-03T05:36:00Z,27.3215,-90.5355,18.3,621.2,11144222
BP,ioos:station:wmo:42370:2,2021-03-03T05:56:00Z,27.3215,-90.5355,18.3,621.0,11144222
BP,ioos:station:wmo:42370:2,2021-03-03T06:16:00Z,27.3215,-90.5355,18.3,621.0,11144222
BP,ioos:station:wmo:42370:2,2021-03-03T06:36:00Z,27.3215,-90.5355,18.3,621.2,11144222
BP,ioos:station:wmo:42370:2,2021-03-03T06:56:00Z,27.3215,-90.5355,18.3,621.2,11144222
BP,ioos:station:wmo:42370:2,2021-03-03T07:16:00Z,27.3215,-90.5355,18.3,621.2,11144222
BP,ioos:station:wmo:42370:2,2021-03-03T07:36:00Z,27.3215,-90.5355,18.3,621.1,11144222
BP,ioos:station:wmo:42370:2,2021-03-03T07:56:00Z,27.3215,-90.5355,18.3,621.2,11144222
BP,ioos:station:wmo:42370:2,2021-03-03T08:16:00Z,27.3215,-90.5355,18.3,621.1,11144222
BP,ioos:station:wmo:42370:2,2021-03-03T08:36:00Z,27.3215,-90.5355,18.3,621.2,11144222
BP,ioos:station:wmo:42370:2,2021-03-03T08:56:00Z,27.3215,-90.5355,18.3,621.1,11144222
BP,ioos:station:wmo:42370:2,2021-03-03T09:16:00Z,27.3215,-90.5355,18.3,621.4,11144222
BP,ioos:station:wmo:42370:2,2021-03-03T09:36:00Z,27.3215,-90.5355,18.3,621.0,11144222
BP,ioos:station:wmo:42370:2,2021-03-03T09:56:00Z,27.3215,-90.5355,18.3,621.0,11144222
BP,ioos:station:wmo:42370:2,2021-03-03T10:16:00Z,27.3215,-90.5355,18.3,621.0,11144222
BP,ioos:station:wmo:42370:2,2021-03-03T10:36:00Z,27.3215,-90.5355,18.3,621.0,11144222
BP,ioos:station:wmo:42370:2,2021-03-03T10:56:00Z,27.3215,-90.5355,18.3,621.0,11144222
BP,ioos:station:wmo:42370:2,2021-03-03T11:16:00Z,27.3215,-90.5355,18.3,621.0,11144222
BP,ioos:station:wmo:42370:2,2021-03-03T11:36:00Z,27.3215,-90.5355,18.3,620.8,11144222
BP,ioos:station:wmo:42370:2,2021-03-03T11:56:00Z,27.3215,-90.5355,18.3,620.9,11144222
BP,ioos:station:wmo:42370:2,2021-03-03T12:16:00Z,27.3215,-90.5355,18.3,620.7,11144222
BP,ioos:station:wmo:42370:2,2021-03-03T12:36:00Z,27.3215,-90.5355,18.3,620.7,11144222
BP,ioos:station:wmo:42370:2,2021-03-03T12:56:00Z,27.3215,-90.5355,18.3,620.8,11144222
BP,ioos:station:wmo:42370:2,2021-03-03T13:16:00Z,27.3215,-90.5355,18.3,620.8,11144222
BP,ioos:station:wmo:42370:2,2021-03-03T13:36:00Z,27.3215,-90.5355,18.3,620.7,11144222
BP,ioos:station:wmo:42370:2,2021-03-03T13:56:00Z,27.3215,-90.5355,18.3,620.7,11144222
BP,ioos:station:wmo:42370:2,2021-03-03T14:16:00Z,27.3215,-90.5355,18.3,620.7,11144222
BP,ioos:station:wmo:42370:2,2021-03-03T14:36:00Z,27.3215,-90.5355,18.3,620.8,11144222
BP,ioos:station:wmo:42370:2,2021-03-03T14:56:00Z,27.3215,-90.5355,18.3,620.7,11144222
BP,ioos:station:wmo:42370:2,2021-03-03T15:16:00Z,27.3215,-90.5355,18.3,620.8,11144222
BP,ioos:station:wmo:42370:2,2021-03-03T15:36:00Z,27.3215,-90.5355,18.3,620.9,11144222
BP,ioos:station:wmo:42370:2,2021-03-03T15:56:00Z,27.3215,-90.5355,18.3,620.7,11144222
BP,ioos:station:wmo:42370:2,2021-03-03T16:16:00Z,27.3215,-90.5355,18.3,620.8,11144222
BP,ioos:station:wmo:42370:2,2021-03-03T16:36:00Z,27.3215,-90.5355,18.3,620.7,11144222
BP,ioos:station:wmo:42370:2,2021-03-03T16:56:00Z,27.3215,-90.5355,18.3,620.6,11144222
BP,ioos:station:wmo:42370:2,2021-03-03T17:16:00Z,27.3215,-90.5355,18.3,620.7,11144222
BP,ioos:station:wmo:42370:2,2021-03-03T17:36:00Z,27.3215,-90.5355,18.3,621.0,11144222
BP,ioos:station:wmo:42370:2,2021-03-03T17:56:00Z,27.3215,-90.5355,18.3,620.9,11144222
BP,ioos:station:wmo:42370:2,2021-03-03T18:16:00Z,27.3215,-90.5355,18.3,620.8,11144222
BP,ioos:station:wmo:42370:2,2021-03-03T18:36:00Z,27.3215,-90.5355,18.3,620.7,11144222
BP,ioos:station:wmo:42370:2,2021-03-03T18:56:00Z,27.3215,-90.5355,18.3,620.8,11144222
BP,ioos:station:wmo:42370:2,2021-03-03T19:16:00Z,27.3215,-90.5355,18.3,620.7,11144222
BP,ioos:station:wmo:42370:2,2021-03-03T19:36:00Z,27.3215,-90.5355,18.3,620.6,11144222
BP,ioos:station:wmo:42370:2,2021-03-03T19:56:00Z,27.3215,-90.5355,18.3,620.8,11144222
BP,ioos:station:wmo:42370:2,2021-03-03T20:16:00Z,27.3215,-90.5355,18.3,620.8,11144222
BP,ioos:station:wmo:42370:2,2021-03-03T20:36:00Z,27.3215,-90.5355,18.3,620.7,11144222
BP,ioos:station:wmo:42370:2,2021-03-03T20:56:00Z,27.3215,-90.5355,18.3,620.8,11144222
BP,ioos:station:wmo:42370:2,2021-03-03T21:16:00Z,27.3215,-90.5355,18.3,620.8,11144222
BP,ioos:station:wmo:42370:2,2021-03-03T21:36:00Z,27.3215,-90.5355,18.3,620.8,11144222
BP,ioos:station:wmo:42370:2,2021-03-03T21:56:00Z,27.3215,-90.5355,18.3,620.8,11144222
BP,ioos:station:wmo:42370:2,2021-03-03T22:16:00Z,27.3215,-90.5355,18.3,620.8,11144222
BP,ioos:station:wmo:42370:2,2021-03-03T22:36:00Z,27.3215,-90.5355,18.3,620.7,11144222
BP,ioos:station:wmo:42370:2,2021-03-03T22:56:00Z,27.3215,-90.5355,18.3,620.9,11144222
BP,ioos:station:wmo:42370:2,2021-03-03T23:16:00Z,27.3215,-90.5355,18.3,620.8,11144222
BP,ioos:station:wmo:42370:2,2021-03-03T23:36:00Z,27.3215,-90.5355,18.3,620.8,11144222
BP,ioos:station:wmo:42370:2,2021-03-03T23:56:00Z,27.3215,-90.5355,18.3,621.0,11144222
BP,ioos:station:wmo:42370:2,2021-03-04T00:16:00Z,27.3215,-90.5355,18.3,620.8,11144222
BP,ioos:station:wmo:42370:2,2021-03-04T00:36:00Z,27.3215,-90.5355,18.3,620.7,11144222
BP,ioos:station:wmo:42370:2,2021-03-04T00:56:00Z,27.3215,-90.5355,18.3,621.0,11144222
BP,ioos:station:wmo:42370:2,2021-03-04T01:16:00Z,27.3215,-90.5355,18.3,621.0,11144222
BP,ioos:station:wmo:42370:2,2021-03-04T01:36:00Z,27.3215,-90.5355,18.3,620.8,11144222
BP,ioos:station:wmo:42370:2,2021-03-04T01:56:00Z,27.3215,-90.5355,18.3,620.7,11144222
BP,ioos:station:wmo:42370:2,2021-03-04T02:16:00Z,27.3215,-90.5355,18.3,620.8,11144222
BP,ioos:station:wmo:42370:2,2021-03-04T02:36:00Z,27.3215,-90.5355,18.3,620.8,11144222
BP,ioos:station:wmo:42370:2,2021-03-04T02:56:00Z,27.3215,-90.5355,18.3,620.6,11144222
BP,ioos:station:wmo:42370:2,2021-03-04T03:16:00Z,27.3215,-90.5355,18.3,620.6,11144222
BP,ioos:station:wmo:42370:2,2021-03-04T03:36:00Z,27.3215,-90.5355,18.3,620.6,11144222
BP,ioos:station:wmo:42370:2,2021-03-04T03:56:00Z,27.3215,-90.5355,18.3,620.8,11144222
BP,ioos:station:wmo:42370:2,2021-03-04T04:16:00Z,27.3215,-90.5355,18.3,620.7,11144222
BP,ioos:station:wmo:42370:2,2021-03-04T04:36:00Z,27.3215,-90.5355,18.3,620.9,11144222
BP,ioos:station:wmo:42370:2,2021-03-04T04:56:00Z,27.3215,-90.5355,18.3,621.0,11144222
BP,ioos:station:wmo:42370:2,2021-03-04T05:16:00Z,27.3215,-90.5355,18.3,620.8,11144222
BP,ioos:station:wmo:42370:2,2021-03-04T05:36:00Z,27.3215,-90.5355,18.3,620.7,11144222
BP,ioos:station:wmo:42370:2,2021-03-04T05:56:00Z,27.3215,-90.5355,18.3,620.7,11144222
BP,ioos:station:wmo:42370:2,2021-03-04T06:16:00Z,27.3215,-90.5355,18.3,620.7,11144222
BP,ioos:station:wmo:42370:2,2021-03-04T06:36:00Z,27.3215,-90.5355,18.3,620.7,11144222
BP,ioos:station:wmo:42370:2,2021-03-04T06:56:00Z,27.3215,-90.5355,18.3,620.7,11144222
BP,ioos:station:wmo:42370:2,2021-03-04T07:16:00Z,27.3215,-90.5355,18.3,620.6,11144222
BP,ioos:station:wmo:42370:2,2021-03-04T07:36:00Z,27.3215,-90.5355,18.3,620.6,11144222
BP,ioos:station:wmo:42370:2,2021-03-04T07:56:00Z,27.3215,-90.5355,18.3,620.7,11144222
BP,ioos:station:wmo:42370:2,2021-03-04T08:16:00Z,27.3215,-90.5355,18.3,620.7,11144222
BP,ioos:station:wmo:42370:2,2021-03-04T08:36:00Z,27.3215,-90.5355,18.3,620.7,11144222
BP,ioos:station:wmo:42370:2,2021-03-04T08:56:00Z,27.3215,-90.5355,18.3,620.7,11144222
BP,ioos:station:wmo:42370:2,2021-03-04T09:16:00Z,27.3215,-90.5355,18.3,620.7,11144222
BP,ioos:station:wmo:42370:2,2021-03-04T09:36:00Z,27.3215,-90.5355,18.3,620.7,11144222
BP,ioos:station:wmo:42370:2,2021-03-04T09:56:00Z,27.3215,-90.5355,18.3,620.7,11144222
BP,ioos:station:wmo:42370:2,2021-03-04T10:16:00Z,27.3215,-90.5355,18.3,620.7,11144222
BP,ioos:station:wmo:42370:2,2021-03-04T10:36:00Z,27.3215,-90.5355,18.3,620.6,11144222
BP,ioos:station:wmo:42370:2,2021-03-04T10:56:00Z,27.3215,-90.5355,18.3,620.6,11144222
BP,ioos:station:wmo:42370:2,2021-03-04T11:16:00Z,27.3215,-90.5355,18.3,620.6,11144222
BP,ioos:station:wmo:42370:2,2021-03-04T11:36:00Z,27.3215,-90.5355,18.3,620.6,11144222
BP,ioos:station:wmo:42370:2,2021-03-04T11:56:00Z,27.3215,-90.5355,18.3,620.7,11144222
BP,ioos:station:wmo:42370:2,2021-03-04T12:16:00Z,27.3215,-90.5355,18.3,620.7,11144222
BP,ioos:station:wmo:42370:2,2021-03-04T12:36:00Z,27.3215,-90.5355,18.3,620.7,11144222
BP,ioos:station:wmo:42370:2,2021-03-04T12:56:00Z,27.3215,-90.5355,18.3,620.7,11144222
BP,ioos:station:wmo:42370:2,2021-03-04T13:16:00Z,27.3215,-90.5355,18.3,620.7,11144222
BP,ioos:station:wmo:42370:2,2021-03-04T13:36:00Z,27.3215,-90.5355,18.3,620.7,11144222
BP,ioos:station:wmo:42370:2,2021-03-04T13:56:00Z,27.3215,-90.5355,18.3,620.8,11144222
BP,ioos:station:wmo:42370:2,2021-03-04T14:16:00Z,27.3215,-90.5355,18.3,620.8,11144222
BP,ioos:station:wmo:42370:2,2021-03-04T14:36:00Z,27.3215,-90.5355,18.3,620.9,11144222
BP,ioos:station:wmo:42370:2,2021-03-04T14:56:00Z,27.3215,-90.5355,18.3,620.9,11144222
BP,ioos:station:wmo:42370:2,2021-03-04T15:17:00Z,27.3215,-90.5355,18.3,621.0,11144222
BP,ioos:station:wmo:42370:2,2021-03-04T15:36:00Z,27.3215,-90.5355,18.3,621.1,11144222
BP,ioos:station:wmo:42370:2,2021-03-04T15:56:00Z,27.3215,-90.5355,18.3,621.1,11144222
BP,ioos:station:wmo:42370:2,2021-03-04T16:16:00Z,27.3215,-90.5355,18.3,621.1,11144222
BP,ioos:station:wmo:42370:2,2021-03-04T16:36:00Z,27.3215,-90.5355,18.3,621.1,11144222
BP,ioos:station:wmo:42370:2,2021-03-04T16:56:00Z,27.3215,-90.5355,18.3,621.1,11144222
BP,ioos:station:wmo:42370:2,2021-03-04T17:16:00Z,27.3215,-90.5355,18.3,621.0,11144222
BP,ioos:station:wmo:42370:2,2021-03-04T17:36:00Z,27.3215,-90.5355,18.3,621.0,11144222
BP,ioos:station:wmo:42370:2,2021-03-04T17:56:00Z,27.3215,-90.5355,18.3,621.0,11144222
BP,ioos:station:wmo:42370:2,2021-03-04T18:16:00Z,27.3215,-90.5355,18.3,621.0,11144222
BP,ioos:station:wmo:42370:2,2021-03-04T18:36:00Z,27.3215,-90.5355,18.3,621.0,11144222
BP,ioos:station:wmo:42370:2,2021-03-04T18:56:00Z,27.3215,-90.5355,18.3,621.0,11144222
BP,ioos:station:wmo:42370:2,2021-03-04T19:16:00Z,27.3215,-90.5355,18.3,621.0,11144222